EW0890 Weather Reports


time (UTC)temp
C
wind
direction
speed
KPH
gust
KPH
rain 1hr
cm
rain 24hr
cm
rain mn
cm
humidity
%
barometer
mb
20260902201504 33 298 4.8 8.0 0.00 0.00 0.00 61 1014.6
20260902201004 33 271 3.2 9.7 0.00 0.00 0.00 63 1014.7
20260902200505 33 252 3.2 9.7 0.00 0.00 0.00 63 1014.8
20260902200109 33 245 3.2 8.0 0.00 0.00 0.00 64 1014.9
20260902200013 33 278 3.2 8.0 0.00 0.00 0.00 63 1014.8
20260902195504 33 266 3.2 9.7 0.00 0.00 0.00 66 1014.9
20260902195004 33 263 3.2 9.7 0.00 0.00 0.00 63 1015.0
20260902194603 33 267 3.2 6.4 0.00 0.00 0.00 62 1015.1
20260902194515 33 298 3.2 6.4 0.00 0.00 0.00 60 1015.0
20260902194005 33 284 3.2 6.4 0.00 0.00 0.00 64 1015.0
20260902193508 33 289 3.2 8.0 0.00 0.00 0.00 65 1015.1
20260902193105 33 283 4.8 9.7 0.00 0.00 0.00 64 1015.3
20260902193019 33 274 4.8 9.7 0.00 0.00 0.00 61 1015.1
20260902192510 33 277 4.8 9.7 0.00 0.00 0.00 62 1015.2
20260902192011 33 280 4.8 11.3 0.00 0.00 0.00 64 1015.3
20260902191605 33 257 6.4 11.3 0.00 0.00 0.00 62 1015.3
20260902191529 33 264 6.4 11.3 0.00 0.00 0.00 61 1015.3
20260902191011 33 270 4.8 11.3 0.00 0.00 0.00 61 1015.3
20260902190513 33 258 4.8 11.3 0.00 0.00 0.00 63 1015.4
20260902190105 33 269 4.8 17.7 0.00 0.00 0.00 65 1015.7
20260902190006 33 233 4.8 17.7 0.00 0.00 0.00 64 1015.4
20260902185504 33 257 1.6 17.7 0.00 0.00 0.00 67 1015.5
20260902185004 33 297 8.0 14.5 0.00 0.00 0.00 61 1015.5
20260902184657 33 298 4.8 12.9 0.00 0.00 0.00 64 1015.7
20260902184518 33 287 4.8 12.9 0.00 0.00 0.00 64 1015.4
20260902184003 33 262 4.8 14.5 0.00 0.00 0.00 64 1015.5
20260902183504 33 285 6.4 14.5 0.00 0.00 0.00 62 1015.4
20260902183105 33 295 4.8 11.3 0.00 0.00 0.00 64 1015.7
20260902183018 33 293 4.8 11.3 0.00 0.00 0.00 66 1015.5
20260902182509 33 311 4.8 14.5 0.00 0.00 0.00 66 1015.5
20260902182007 33 298 6.4 14.5 0.00 0.00 0.00 64 1015.5
20260902181605 32 292 6.4 14.5 0.00 0.00 0.00 62 1015.6
20260902181520 32 297 8.0 14.5 0.00 0.00 0.00 64 1015.6
20260902181009 32 271 6.4 16.1 0.00 0.00 0.00 64 1015.7
20260902180511 32 292 8.0 16.1 0.00 0.00 0.00 63 1015.8
20260902180109 33 288 4.8 11.3 0.00 0.00 0.00 65 1015.8
20260902180024 33 277 4.8 11.3 0.00 0.00 0.00 66 1015.8
20260902175512 33 281 4.8 8.0 0.00 0.00 0.00 68 1015.7
20260902175015 33 240 3.2 9.7 0.00 0.00 0.00 68 1015.7
20260902174607 32 285 4.8 9.7 0.00 0.00 0.00 68 1015.7
20260902174507 32 280 4.8 9.7 0.00 0.00 0.00 68 1015.6
20260902174004 32 236 6.4 16.1 0.00 0.00 0.00 67 1015.7
20260902173505 32 293 4.8 16.1 0.00 0.00 0.00 68 1015.7
20260902173104 32 272 4.8 11.3 0.00 0.00 0.00 67 1015.9
20260902173010 32 247 4.8 11.3 0.00 0.00 0.00 68 1015.7
20260902172504 32 293 6.4 11.3 0.00 0.00 0.00 68 1015.7
20260902172006 32 272 6.4 11.3 0.00 0.00 0.00 68 1015.8
20260902171609 32 278 6.4 12.9 0.00 0.00 0.00 68 1015.9
20260902171521 32 246 6.4 12.9 0.00 0.00 0.00 67 1015.7
20260902171007 32 280 4.8 12.9 0.00 0.00 0.00 69 1015.8
20260902170508 32 257 6.4 9.7 0.00 0.00 0.00 69 1015.8
20260902170022 31 279 3.2 9.7 0.00 0.00 0.00 72 1015.9
20260902165513 31 256 4.8 9.7 0.00 0.00 0.00 71 1016.0
20260902165011 31 288 6.4 9.7 0.00 0.00 0.00 71 1016.0
20260902164603 31 281 3.2 8.0 0.00 0.00 0.00 72 1016.0
20260902164530 31 242 3.2 8.0 0.00 0.00 0.00 73 1016.0
20260902164015 31 283 4.8 8.0 0.00 0.00 0.00 71 1016.1
20260902163514 31 242 3.2 8.0 0.00 0.00 0.00 73 1016.2
20260902163100 30 281 3.2 9.7 0.00 0.00 0.00 72 1016.1
20260902163007 30 268 3.2 9.7 0.00 0.00 0.00 72 1016.2
20260902162504 30 290 6.4 11.3 0.00 0.00 0.00 70 1016.0
20260902162005 30 279 6.4 12.9 0.00 0.00 0.00 70 1016.2
20260902161611 30 287 6.4 14.5 0.00 0.00 0.00 70 1016.1
20260902161518 31 288 6.4 14.5 0.00 0.00 0.00 70 1016.2
20260902161013 30 300 6.4 14.5 0.00 0.00 0.00 71 1016.2
20260902160509 30 300 8.0 14.5 0.00 0.00 0.00 71 1016.2
20260902160059 30 233 6.4 11.3 0.00 0.00 0.00 72 1016.2
20260902160020 30 271 6.4 11.3 0.00 0.00 0.00 72 1016.2
20260902155509 30 265 4.8 11.3 0.00 0.00 0.00 73 1016.2
20260902155014 30 288 6.4 11.3 0.00 0.00 0.00 72 1016.2
20260902154602 30 290 6.4 12.9 0.00 0.00 0.00 73 1016.2
20260902154526 30 257 6.4 12.9 0.00 0.00 0.00 72 1016.2
20260902154011 30 283 6.4 12.9 0.00 0.00 0.00 71 1016.2
20260902153511 30 285 8.0 14.5 0.00 0.00 0.00 72 1016.2
20260902153114 30 278 6.4 14.5 0.00 0.00 0.00 73 1016.2
20260902153029 29 287 6.4 14.5 0.00 0.00 0.00 73 1016.2
20260902152515 29 288 6.4 12.9 0.00 0.00 0.00 73 1016.1
20260902152017 29 286 6.4 14.5 0.00 0.00 0.00 72 1016.0
20260902151603 29 297 4.8 14.5 0.00 0.00 0.00 73 1015.9
20260902151510 29 285 4.8 14.5 0.00 0.00 0.00 74 1016.0
20260902151004 28 231 6.4 14.5 0.00 0.00 0.00 75 1016.0
20260902150508 28 278 6.4 14.5 0.00 0.00 0.00 74 1016.0
20260902150015 28 259 6.4 14.5 0.00 0.00 0.00 76 1016.0
20260902145507 28 301 4.8 9.7 0.00 0.00 0.00 75 1016.0
20260902145008 28 269 4.8 9.7 0.00 0.00 0.00 75 1015.9
20260902144622 28 292 6.4 11.3 0.00 0.00 0.00 75 1015.9
20260902144531 28 289 6.4 11.3 0.00 0.00 0.00 76 1015.9
20260902144011 28 281 4.8 11.3 0.00 0.00 0.00 77 1015.9
20260902143509 28 290 6.4 11.3 0.00 0.00 0.00 76 1015.9
20260902143113 28 296 6.4 11.3 0.00 0.00 0.00 76 1015.9
20260902143025 28 283 6.4 11.3 0.00 0.00 0.00 76 1015.8
20260902142514 28 290 6.4 9.7 0.00 0.00 0.00 77 1015.8
20260902142014 28 274 4.8 9.7 0.00 0.00 0.00 78 1015.9
20260902141601 27 281 4.8 9.7 0.00 0.00 0.00 78 1015.8
20260902141536 27 266 4.8 9.7 0.00 0.00 0.00 78 1015.7
20260902141016 27 282 4.8 9.7 0.00 0.00 0.00 78 1015.9
20260902140516 27 253 4.8 9.7 0.00 0.00 0.00 79 1015.9
20260902140012 27 268 4.8 11.3 0.00 0.00 0.00 78 1016.0
20260902135508 27 311 4.8 11.3 0.00 0.00 0.00 78 1015.9
20260902135007 27 310 4.8 11.3 0.00 0.00 0.00 78 1015.9
20260902134603 27 280 4.8 9.7 0.00 0.00 0.00 79 1016.0
20260902134518 27 264 4.8 9.7 0.00 0.00 0.00 79 1015.9
20260902134007 26 267 4.8 9.7 0.00 0.00 0.00 80 1015.9
20260902133513 26 269 4.8 9.7 0.00 0.00 0.00 79 1016.0
20260902133101 26 290 4.8 8.0 0.00 0.00 0.00 79 1016.1
20260902133024 26 271 4.8 8.0 0.00 0.00 0.00 79 1016.1
20260902132516 26 280 4.8 8.0 0.00 0.00 0.00 79 1016.2
20260902132011 26 289 3.2 4.8 0.00 0.00 0.00 81 1016.2
20260902131600 26 278 1.6 6.4 0.00 0.00 0.00 82 1016.1
20260902131542 26 281 1.6 6.4 0.00 0.00 0.00 82 1016.1
20260902131013 26 288 3.2 6.4 0.00 0.00 0.00 83 1016.0
20260902130520 25 295 1.6 4.8 0.00 0.00 0.00 83 1016.1
20260902130100 25 281 1.6 6.4 0.00 0.00 0.00 84 1016.1
20260902130028 25 281 1.6 4.8 0.00 0.00 0.00 84 1016.2
20260902125517 25 295 3.2 6.4 0.00 0.00 0.00 84 1016.0
20260902125017 25 256 1.6 6.4 0.00 0.00 0.00 84 1016.1
20260902124610 25 274 1.6 4.8 0.00 0.00 0.00 84 1016.1
20260902124513 25 281 1.6 4.8 0.00 0.00 0.00 85 1016.0
20260902124006 25 240 1.6 4.8 0.00 0.00 0.00 85 1016.0
20260902123508 24 287 1.6 4.8 0.00 0.00 0.00 85 1016.0
20260902123104 24 246 3.2 4.8 0.00 0.00 0.00 85 1016.1
20260902123019 24 287 3.2 4.8 0.00 0.00 0.00 85 1016.1
20260902122511 24 290 1.6 4.8 0.00 0.00 0.00 85 1016.1
20260902122011 24 259 1.6 4.8 0.00 0.00 0.00 85 1016.1
20260902121612 23 270 1.6 4.8 0.00 0.00 0.00 86 1016.2
20260902121527 23 252 1.6 4.8 0.00 0.00 0.00 86 1016.2
20260902121011 23 274 1.6 4.8 0.00 0.00 0.00 86 1016.2
20260902120515 23 252 1.6 4.8 0.00 0.00 0.00 86 1016.1
20260902120111 23 241 1.6 4.8 0.00 0.00 0.00 87 1016.1
20260902120036 23 261 1.6 4.8 0.00 0.00 0.00 87 1016.0
20260902115514 23 285 1.6 4.8 0.00 0.00 0.00 87 1016.1
20260902115017 23 278 1.6 4.8 0.00 0.00 0.00 87 1016.0
20260902114618 23 293 1.6 4.8 0.00 0.00 0.00 87 1016.1
20260902114534 23 281 1.6 4.8 0.00 0.00 0.00 87 1016.2
20260902114006 23 238 1.6 4.8 0.00 0.00 0.00 88 1016.0
20260902113503 23 238 1.6 4.8 0.00 0.00 0.00 88 1016.0
20260902113102 23 217 1.6 4.8 0.00 0.00 0.00 88 1016.0
20260902113018 23 283 1.6 4.8 0.00 0.00 0.00 88 1016.0
20260902112510 23 195 1.6 6.4 0.00 0.00 0.00 88 1016.0
20260902112009 23 287 1.6 6.4 0.00 0.00 0.00 88 1016.0
20260902111605 23 303 1.6 4.8 0.00 0.00 0.00 88 1016.0
20260902111518 23 285 1.6 4.8 0.00 0.00 0.00 88 1016.0
20260902111006 23 276 1.6 6.4 0.00 0.00 0.00 88 1015.9
20260902110506 23 269 1.6 6.4 0.00 0.00 0.00 88 1015.8
20260902110114 23 311 0.0 4.8 0.00 0.00 0.00 88 1015.7
20260902110017 23 288 0.0 4.8 0.00 0.00 0.00 88 1015.8
20260902105509 23 321 1.6 4.8 0.00 0.00 0.00 88 1015.6
20260902105006 23 306 0.0 4.8 0.00 0.00 0.00 88 1015.7
20260902104604 23 283 1.6 6.4 0.00 0.00 0.00 88 1015.6
20260902104514 23 257 1.6 6.4 0.00 0.00 0.00 88 1015.7
20260902104004 23 249 1.6 6.4 0.00 0.00 0.00 88 1015.6
20260902103503 22 260 1.6 8.0 0.00 0.00 0.00 88 1015.8
20260902103120 22 272 1.6 8.0 0.00 0.00 0.00 88 1015.7
20260902103013 22 279 1.6 8.0 0.00 0.00 0.00 88 1015.8
20260902102506 22 276 1.6 4.8 0.00 0.00 0.00 88 1015.8
20260902102007 22 275 1.6 3.2 0.00 0.00 0.00 88 1015.7
20260902101600 22 252 1.6 4.8 0.00 0.00 0.00 88 1015.7
20260902101518 22 261 1.6 3.2 0.00 0.00 0.00 88 1015.7
20260902101006 22 289 0.0 4.8 0.00 0.00 0.00 88 1015.9
20260902100508 22 283 1.6 4.8 0.00 0.00 0.00 88 1015.8
20260902100104 22 281 1.6 3.2 0.00 0.00 0.00 88 1015.8
20260902100018 22 243 1.6 3.2 0.00 0.00 0.00 88 1015.7
20260902095510 22 295 1.6 4.8 0.00 0.00 0.00 88 1015.7
20260902095005 22 283 0.0 4.8 0.00 0.00 0.00 87 1015.7
20260902094602 23 278 1.6 4.8 0.00 0.00 0.00 87 1015.8
20260902094518 23 286 1.6 4.8 0.00 0.00 0.00 87 1015.8
20260902094012 23 277 1.6 3.2 0.00 0.00 0.00 87 1015.8
20260902093508 23 291 1.6 3.2 0.00 0.00 0.00 87 1015.7
20260902093111 23 247 1.6 4.8 0.00 0.00 0.00 87 1015.7
20260902093009 23 281 1.6 4.8 0.00 0.00 0.00 87 1015.7
20260902092504 23 258 1.6 4.8 0.00 0.00 0.00 87 1015.5
20260902092004 23 271 1.6 4.8 0.00 0.00 0.00 87 1015.5
20260902091559 23 270 1.6 3.2 0.00 0.00 0.00 87 1015.6
20260902091533 23 266 1.6 3.2 0.00 0.00 0.00 87 1015.6
20260902091007 23 250 1.6 3.2 0.00 0.00 0.00 87 1015.7
20260902090511 23 279 1.6 3.2 0.00 0.00 0.00 87 1015.5
20260902090020 23 306 1.6 4.8 0.00 0.00 0.00 87 1015.4
20260902085509 22 244 1.6 4.8 0.00 0.00 0.00 87 1015.4
20260902085009 22 278 1.6 4.8 0.00 0.00 0.00 87 1015.3
20260902084601 22 260 1.6 3.2 0.00 0.00 0.00 88 1015.4
20260902084517 22 278 1.6 3.2 0.00 0.00 0.00 88 1015.3
20260902084010 22 282 1.6 3.2 0.00 0.00 0.00 87 1015.4
20260902083509 22 289 1.6 3.2 0.00 0.00 0.00 87 1015.3
20260902083059 23 0 0.0 3.2 0.00 0.00 0.00 87 1015.4
20260902083021 23 306 0.0 3.2 0.00 0.00 0.00 87 1015.4
20260902082506 23 263 0.0 4.8 0.00 0.00 0.00 87 1015.3
20260902082008 23 283 1.6 4.8 0.00 0.00 0.00 86 1015.3
20260902081559 23 0 1.6 4.8 0.00 0.00 0.00 86 1015.4
20260902081524 23 281 1.6 4.8 0.00 0.00 0.00 86 1015.4
20260902081006 23 273 1.6 4.8 0.00 0.00 0.00 86 1015.4
20260902080508 23 284 1.6 4.8 0.00 0.00 0.00 86 1015.3
20260902080100 23 280 0.0 4.8 0.00 0.00 0.00 86 1015.4
20260902080018 23 290 0.0 4.8 0.00 0.00 0.00 85 1015.3
20260902075507 23 266 1.6 4.8 0.00 0.00 0.00 85 1015.4
20260902075008 23 268 1.6 6.4 0.00 0.00 0.00 85 1015.4
20260902074612 23 274 1.6 6.4 0.00 0.00 0.00 85 1015.3
20260902074528 23 265 1.6 6.4 0.00 0.00 0.00 85 1015.4
20260902074012 23 303 1.6 4.8 0.00 0.00 0.00 85 1015.4
20260902073515 23 290 1.6 4.8 0.00 0.00 0.00 86 1015.5
20260902073104 23 278 1.6 3.2 0.00 0.00 0.00 86 1015.3
20260902073024 23 316 1.6 3.2 0.00 0.00 0.00 86 1015.3
20260902072510 23 285 1.6 3.2 0.00 0.00 0.00 86 1015.4
20260902072009 23 288 0.0 3.2 0.00 0.00 0.00 86 1015.4
20260902071604 23 281 0.0 3.2 0.00 0.00 0.00 86 1015.5
20260902071546 23 311 0.0 3.2 0.00 0.00 0.00 86 1015.5
20260902071014 23 267 0.0 1.6 0.00 0.00 0.00 86 1015.6
20260902070505 23 284 0.0 1.6 0.00 0.00 0.00 86 1015.6
20260902070103 23 288 0.0 3.2 0.00 0.00 0.00 86 1015.6
20260902070015 23 293 1.6 3.2 0.00 0.00 0.00 86 1015.7
20260902065511 23 281 0.0 3.2 0.00 0.00 0.00 86 1015.7
20260902065008 23 285 1.6 3.2 0.00 0.00 0.00 85 1015.6
20260902064602 23 288 0.0 4.8 0.00 0.00 0.00 85 1015.6
20260902064523 23 278 0.0 4.8 0.00 0.00 0.00 85 1015.6
20260902064012 23 285 0.0 4.8 0.00 0.00 0.00 85 1015.7
20260902063510 23 274 1.6 3.2 0.00 0.00 0.00 85 1015.8
20260902063059 23 264 1.6 3.2 0.00 0.00 0.00 85 1015.7
20260902063027 23 278 1.6 3.2 0.00 0.00 0.00 85 1015.7
20260902062510 24 288 1.6 3.2 0.00 0.00 0.00 85 1015.7
20260902062011 24 296 1.6 3.2 0.00 0.00 0.00 85 1015.8
20260902061558 24 269 1.6 3.2 0.00 0.00 0.00 85 1015.7
20260902061540 24 281 1.6 3.2 0.00 0.00 0.00 85 1015.8
20260902061012 24 279 1.6 3.2 0.00 0.00 0.00 85 1015.6
20260902060512 24 289 1.6 3.2 0.00 0.00 0.00 85 1015.6
20260902060119 24 291 0.0 3.2 0.00 0.00 0.00 86 1015.7
20260902060031 24 273 1.6 3.2 0.00 0.00 0.00 86 1015.8
20260902055511 24 269 1.6 3.2 0.00 0.00 0.00 86 1015.7
20260902055007 24 284 1.6 3.2 0.00 0.00 0.00 86 1015.7
20260902054601 24 288 0.0 1.6 0.00 0.00 0.00 87 1015.7
20260902054532 24 264 0.0 1.6 0.00 0.00 0.00 87 1015.6
20260902054007 24 298 0.0 3.2 0.00 0.00 0.00 87 1015.7
20260902053512 24 298 0.0 3.2 0.00 0.00 0.00 88 1015.8
20260902053106 23 288 0.0 3.2 0.00 0.00 0.00 89 1015.6
20260902053025 23 300 0.0 3.2 0.00 0.00 0.00 89 1015.6
20260902052511 23 282 0.0 3.2 0.00 0.00 0.00 90 1015.6
20260902052012 23 269 0.0 1.6 0.00 0.00 0.00 91 1015.6
20260902051557 23 0 0.0 0.0 0.00 0.00 0.00 91 1015.6
20260902051530 23 243 0.0 0.0 0.00 0.00 0.00 92 1015.7
20260902051015 23 239 0.0 0.0 0.00 0.00 0.00 92 1015.6
20260902050511 23 156 0.0 0.0 0.00 0.00 0.00 92 1015.7
20260902050106 23 0 0.0 0.0 0.00 0.00 0.00 91 1015.7
20260902050035 23 40 0.0 0.0 0.00 0.00 0.00 91 1015.7
20260902045511 23 40 0.0 0.0 0.00 0.00 0.00 91 1015.8
20260902045010 23 40 0.0 0.0 0.00 0.00 0.00 91 1015.6
20260902044603 23 0 0.0 0.0 0.00 0.00 0.00 91 1015.6
20260902044531 23 41 0.0 0.0 0.00 0.00 0.00 91 1015.6
20260902044012 24 41 0.0 0.0 0.00 0.00 0.00 91 1015.6
20260902043511 24 64 0.0 0.0 0.00 0.00 0.00 91 1015.6
20260902043111 24 0 0.0 0.0 0.00 0.00 0.00 90 1015.6
20260902043022 24 63 0.0 0.0 0.00 0.00 0.00 90 1015.5
20260902042513 24 63 0.0 0.0 0.00 0.00 0.00 90 1015.6
20260902042013 24 63 0.0 0.0 0.00 0.00 0.00 90 1015.6
20260902041600 24 0 0.0 0.0 0.00 0.00 0.00 90 1015.6
20260902041532 24 60 0.0 0.0 0.00 0.00 0.00 90 1015.6
20260902041013 24 60 0.0 0.0 0.00 0.00 0.00 90 1015.5
20260902040512 24 122 0.0 0.0 0.00 0.00 0.00 90 1015.6
20260902040108 24 0 0.0 0.0 0.00 0.00 0.00 90 1015.7
20260902040027 24 129 0.0 0.0 0.00 0.00 0.00 90 1015.6
20260902035510 24 283 0.0 0.0 0.00 0.00 0.00 91 1015.7
20260902035015 24 237 0.0 1.6 0.00 0.00 0.00 91 1015.6
20260902034608 24 0 0.0 1.6 0.00 0.00 0.00 91 1015.7
20260902034528 24 224 0.0 1.6 0.00 0.00 0.00 91 1015.7
20260902034015 24 155 0.0 1.6 0.00 0.00 0.00 91 1015.6
20260902033514 24 220 0.0 0.0 0.00 0.00 0.00 91 1015.7
20260902033108 24 0 0.0 0.0 0.00 0.00 0.00 91 1015.8
20260902033028 24 234 0.0 0.0 0.00 0.00 0.00 91 1015.7
20260902032517 24 229 0.0 0.0 0.00 0.00 0.00 91 1015.8
20260902032012 23 243 0.0 0.0 0.00 0.00 0.00 91 1015.7
20260902031606 24 0 0.0 0.0 0.00 0.00 0.00 91 1015.8
20260902031526 24 242 0.0 0.0 0.00 0.00 0.00 91 1015.8
20260902031009 24 245 0.0 0.0 0.00 0.00 0.00 91 1015.9
20260902030515 24 245 0.0 0.0 0.00 0.00 0.00 91 1015.8
20260902030027 24 245 0.0 0.0 0.00 0.00 0.00 90 1015.8
20260902025513 24 245 0.0 0.0 0.00 0.00 0.00 90 1015.8
20260902025013 24 245 0.0 0.0 0.00 0.00 0.00 90 1015.8
20260902024601 24 0 0.0 0.0 0.00 0.00 0.00 90 1015.8
20260902024527 24 245 0.0 0.0 0.00 0.00 0.00 89 1015.7
20260902024003 24 245 0.0 0.0 0.00 0.00 0.00 89 1015.6
20260902023506 24 244 0.0 1.6 0.00 0.00 0.00 89 1015.8
20260902023105 24 0 0.0 1.6 0.00 0.00 0.00 89 1015.7
20260902023018 24 244 0.0 1.6 0.00 0.00 0.00 89 1015.7
20260902022507 24 229 0.0 1.6 0.00 0.00 0.00 89 1015.5
20260902022007 24 253 0.0 1.6 0.00 0.00 0.00 89 1015.5
20260902021603 24 0 0.0 1.6 0.00 0.00 0.00 89 1015.7
20260902021520 24 250 0.0 1.6 0.00 0.00 0.00 89 1015.6
20260902021007 25 246 0.0 0.0 0.00 0.00 0.00 89 1015.6
20260902020515 25 246 0.0 0.0 0.00 0.00 0.00 89 1015.4
20260902020105 25 0 0.0 0.0 0.00 0.00 0.00 89 1015.7
20260902020023 25 246 0.0 0.0 0.00 0.00 0.00 89 1015.4
20260902015511 25 246 0.0 0.0 0.00 0.00 0.00 89 1015.5
20260902015003 25 246 0.0 0.0 0.00 0.00 0.00 89 1015.5
20260902014600 25 0 0.0 0.0 0.00 0.00 0.00 89 1015.6
20260902014504 25 246 0.0 0.0 0.00 0.00 0.00 89 1015.4
20260902014003 25 246 0.0 0.0 0.00 0.00 0.00 89 1015.5
20260902013503 25 246 0.0 1.6 0.00 0.00 0.00 89 1015.4
20260902013059 25 0 0.0 1.6 0.00 0.00 0.00 89 1015.4
20260902013007 25 231 0.0 1.6 0.00 0.00 0.00 89 1015.3
20260902012506 25 243 0.0 0.0 0.00 0.00 0.00 89 1015.3
20260902012006 25 243 0.0 0.0 0.00 0.00 0.00 89 1015.2
20260902011608 25 0 0.0 0.0 0.00 0.00 0.00 89 1015.3
20260902011519 25 243 0.0 0.0 0.00 0.00 0.00 89 1015.2
20260902011008 25 243 0.0 0.0 0.00 0.00 0.00 88 1015.2
20260902010507 25 243 0.0 0.0 0.00 0.00 0.00 87 1015.2
20260902010101 26 0 0.0 0.0 0.00 0.00 0.00 87 1015.3
20260902010031 26 243 0.0 0.0 0.00 0.00 0.00 87 1015.1
20260902005509 26 243 0.0 0.0 0.00 0.00 0.00 86 1015.0
20260902005013 26 243 0.0 0.0 0.00 0.00 0.00 85 1015.1
20260902004608 26 0 0.0 0.0 0.00 0.00 0.00 84 1015.2
20260902004527 26 243 0.0 0.0 0.00 0.00 0.00 84 1015.1
20260902004011 27 243 0.0 0.0 0.00 0.00 0.00 82 1015.1
20260902003503 27 243 0.0 0.0 0.00 0.00 0.00 81 1015.0
20260902003105 28 0 0.0 0.0 0.00 0.00 0.00 80 1015.2
20260902003005 28 243 0.0 0.0 0.00 0.00 0.00 79 1015.0
20260902002503 29 243 0.0 0.0 0.00 0.00 0.00 78 1015.0
20260902002008 30 243 0.0 0.0 0.00 0.00 0.00 76 1015.0
20260902001607 30 0 0.0 0.0 0.00 0.00 0.00 74 1015.2
20260902001509 30 243 0.0 0.0 0.00 0.00 0.00 74 1015.0
20260902001003 31 243 0.0 0.0 0.00 0.00 0.00 73 1015.0
20260902000508 31 243 0.0 0.0 0.00 0.00 0.00 71 1015.0
20260902000101 32 0 0.0 0.0 0.00 0.00 0.00 70 1015.2
20260902000031 32 243 0.0 0.0 0.00 0.00 0.00 70 1015.0
20260901235509 32 243 0.0 0.0 0.00 0.00 0.00 69 1015.1
20260901235010 33 243 0.0 0.0 0.00 0.00 0.00 68 1015.1
20260901234613 33 0 0.0 0.0 0.00 0.00 0.00 68 1015.2
20260901234520 33 243 0.0 0.0 0.00 0.00 0.00 68 1015.1
20260901234013 33 243 0.0 0.0 0.00 0.00 0.00 67 1015.2
20260901233509 33 243 0.0 0.0 0.00 0.00 0.00 67 1015.2
20260901233105 33 0 0.0 0.0 0.00 0.00 0.00 67 1015.2
20260901233026 33 243 0.0 0.0 0.00 0.00 0.00 67 1015.2
20260901232512 34 243 0.0 0.0 0.00 0.00 0.00 66 1015.3
20260901232004 34 243 0.0 0.0 0.00 0.00 0.00 65 1015.2
20260901231605 34 0 0.0 1.6 0.00 0.00 0.00 65 1015.3
20260901231508 34 243 0.0 1.6 0.00 0.00 0.00 64 1015.2
20260901231004 34 243 0.0 1.6 0.00 0.00 0.00 64 1015.3
20260901230504 35 221 0.0 0.0 0.00 0.00 0.00 64 1015.3
20260901230108 35 0 0.0 1.6 0.00 0.00 0.00 64 1015.3
20260901230026 35 221 0.0 1.6 0.00 0.00 0.00 65 1015.3
20260901225507 35 134 0.0 1.6 0.00 0.00 0.00 65 1015.3
20260901225009 35 264 0.0 1.6 0.00 0.00 0.00 65 1015.3
20260901224605 35 0 0.0 1.6 0.00 0.00 0.00 64 1015.4
20260901224531 35 264 0.0 1.6 0.00 0.00 0.00 63 1015.3
20260901224010 35 247 0.0 1.6 0.00 0.00 0.00 63 1015.4
20260901223509 35 246 0.0 1.6 0.00 0.00 0.00 64 1015.3
20260901223104 34 246 0.0 1.6 0.00 0.00 0.00 64 1015.5
20260901223042 34 256 0.0 1.6 0.00 0.00 0.00 65 1015.3
20260901222511 34 262 0.0 4.8 0.00 0.00 0.00 64 1015.3
20260901222011 34 273 0.0 4.8 0.00 0.00 0.00 62 1015.3
20260901221608 34 255 0.0 3.2 0.00 0.00 0.00 61 1015.4
20260901221528 34 285 0.0 3.2 0.00 0.00 0.00 60 1015.2
20260901221016 34 278 0.0 3.2 0.00 0.00 0.00 61 1015.2
20260901220503 33 285 1.6 4.8 0.00 0.00 0.00 58 1015.2
20260901220121 33 307 1.6 4.8 0.00 0.00 0.00 60 1015.4
20260901220009 33 273 1.6 4.8 0.00 0.00 0.00 60 1015.3
20260901215505 33 246 1.6 4.8 0.00 0.00 0.00 61 1015.2
20260901215007 33 200 1.6 4.8 0.00 0.00 0.00 61 1015.1
20260901214603 33 0 1.6 4.8 0.00 0.00 0.00 60 1015.3
20260901214516 33 248 1.6 4.8 0.00 0.00 0.00 61 1015.1
20260901214008 33 281 1.6 4.8 0.00 0.00 0.00 58 1015.1
20260901213508 33 269 1.6 4.8 0.00 0.00 0.00 60 1015.2
20260901213114 33 271 1.6 6.4 0.00 0.00 0.00 61 1015.3
20260901213031 33 254 1.6 6.4 0.00 0.00 0.00 61 1015.2
20260901212511 33 297 3.2 6.4 0.00 0.00 0.00 61 1015.2
20260901212012 33 286 1.6 6.4 0.00 0.00 0.00 61 1015.2
20260901211604 33 263 3.2 8.0 0.00 0.00 0.00 59 1015.4
20260901211528 33 242 3.2 8.0 0.00 0.00 0.00 58 1015.2
20260901211015 33 246 3.2 8.0 0.00 0.00 0.00 60 1015.2
20260901210515 33 270 1.6 8.0 0.00 0.00 0.00 63 1015.2
20260901210109 33 286 3.2 8.0 0.00 0.00 0.00 61 1015.5
20260901210038 33 288 3.2 8.0 0.00 0.00 0.00 61 1015.3
20260901205517 33 277 1.6 6.4 0.00 0.00 0.00 63 1015.3
20260901205002 33 283 3.2 6.4 0.00 0.00 0.00 59 1015.3
20260901204605 33 285 3.2 6.4 0.00 0.00 0.00 60 1015.5
20260901204515 33 306 3.2 6.4 0.00 0.00 0.00 61 1015.3
20260901204006 33 273 3.2 6.4 0.00 0.00 0.00 60 1015.3
20260901203507 33 287 3.2 8.0 0.00 0.00 0.00 62 1015.4
20260901203106 33 295 3.2 8.0 0.00 0.00 0.00 64 1015.5
20260901203019 33 275 3.2 8.0 0.00 0.00 0.00 63 1015.3
20260901202509 33 276 3.2 8.0 0.00 0.00 0.00 61 1015.4
20260901202009 33 281 3.2 8.0 0.00 0.00 0.00 62 1015.3
20260901201605 33 285 3.2 8.0 0.00 0.00 0.00 60 1015.5
20260901201522 33 284 3.2 8.0 0.00 0.00 0.00 59 1015.3